SCP
0 0 0 0 0 0 0 0 0 0 0 0 0 0 0 0 0 0 0 0 0 0 0 0 0 0 0 0 0 0 0 0 0 0 0 0 0 0 1 1 1 1 1 1 1 1 1 1 1
0 0 0 0 0 0 0 0 0 0 0 0 0 0 0 0 0 0 0 0 0 0 0 0 0 0 0 0 0 0 0 0 0 0 0 0 1 1 1 1 1 1 1 1 1 1 1 1 1
0 0 0 0 0 0 0 0 0 0 0 0 0 0 0 0 0 0 0 0 0 0 0 0 0 0 0 0 0 0 0 0 0 0 0 1 1 1 1 3 3 2 2 2 2 2 1 1 1
0 0 0 0 0 0 0 0 0 0 0 0 0 0 0 0 0 0 0 0 0 0 0 0 0 0 0 0 0 0 0 0 0 0 1 1 1 1 2 4 5 4 2 2 2 2 1 1 1
0 0 0 0 0 0 0 0 0 0 0 0 0 0 0 0 0 0 0 0 0 0 0 0 0 0 0 0 0 0 0 0 0 0 1 1 2 2 3 4 5 4 3 2 2 2 1 1 1
0 0 0 0 0 0 0 0 0 0 0 0 0 0 0 0 0 0 0 0 0 0 0 0 0 0 0 0 0 0 0 0 0 0 0 1 2 3 3 4 4 3 3 2 2 2 1 1 1
0 0 0 0 0 0 0 0 0 0 0 0 0 0 0 0 0 0 0 0 0 0 0 0 0 0 0 0 0 0 0 0 0 0 0 1 1 2 3 3 3 3 3 2 2 2 1 1 1
0 0 0 0 0 0 0 0 0 0 0 0 0 0 0 0 0 0 0 0 0 0 0 0 0 0 0 0 0 0 0 0 0 0 0 0 1 1 2 2 3 3 2 2 2 2 1 1 1
0 0 0 0 0 0 0 0 0 0 0 0 0 0 0 0 0 0 0 0 0 0 0 0 0 0 0 0 0 0 0 0 0 0 0 0 0 1 1 1 2 2 2 2 1 1 1 1 1
0 0 0 0 0 0 0 0 0 0 0 0 0 0 0 0 0 0 0 0 0 0 0 0 0 0 0 0 0 0 0 0 0 0 0 0 0 0 0 1 1 1 1 1 1 1 1 1 1
0 0 0 0 0 0 0 0 0 0 0 0 0 0 0 0 0 0 0 0 0 0 0 0 0 0 0 0 0 0 0 0 0 0 0 0 0 0 0 0 1 1 1 1 1 1 1 1 1
0 0 0 0 0 0 0 0 0 0 0 0 0 0 0 0 0 0 0 0 0 0 0 0 0 0 0 0 0 0 0 0 0 0 0 0 0 0 0 0 0 0 0 0 0 0 1 1 1
0 0 0 0 0 0 0 0 0 0 1 0 0 0 0 0 0 0 0 0 0 0 0 0 0 0 0 0 0 0 0 0 0 0 0 0 0 0 0 0 0 0 0 0 0 0 0 0 0
0 0 0 0 0 0 0 0 0 0 1 1 0 0 0 0 0 0 0 0 0 0 0 0 0 0 0 0 0 0 0 0 0 0 0 0 0 0 0 0 0 0 0 0 0 0 0 0 0
0 0 0 0 0 0 0 0 0 0 1 1 1 0 0 0 0 0 0 0 0 0 0 0 0 0 0 0 0 0 0 0 0 0 0 0 0 0 0 0 0 0 0 0 0 0 0 0 0
0 0 0 0 0 0 0 0 0 0 0 1 1 0 0 0 0 0 0 0 0 0 0 0 0 0 0 0 0 0 0 0 0 0 0 0 0 0 0 0 0 0 0 0 0 0 0 0 0
0 0 0 0 0 0 0 0 0 0 0 0 0 0 0 0 0 1 1 1 1 1 1 0 0 0 0 0 0 0 0 0 0 0 0 0 0 0 0 0 0 0 0 0 0 0 0 0 0
0 0 0 0 0 0 0 0 0 0 0 0 0 0 0 0 1 1 1 1 1 1 1 1 1 0 0 0 0 0 0 0 0 0 0 0 0 0 0 0 0 0 0 0 0 0 0 0 0
0 0 0 0 0 0 0 0 0 0 0 0 0 0 0 0 0 1 1 1 1 1 1 1 1 1 0 0 0 0 0 0 0 0 0 0 0 0 0 0 0 0 0 0 0 0 0 0 0
0 0 0 0 0 0 0 0 0 0 0 0 0 0 0 0 0 1 1 1 1 1 1 1 1 1 1 0 0 0 0 0 0 0 0 0 0 0 0 0 0 0 0 0 0 0 0 0 0
0 0 0 0 0 0 0 0 0 0 0 0 0 0 0 0 1 1 1 1 1 2 2 1 1 1 1 0 0 0 0 0 0 0 0 0 0 0 0 0 0 0 0 0 0 0 0 0 0
0 0 0 0 0 0 0 0 0 0 0 0 0 0 0 0 0 1 1 1 1 2 2 1 1 1 1 0 0 0 0 0 0 0 0 0 0 0 0 0 0 0 0 0 0 0 0 0 0
0 0 0 0 0 0 0 0 0 0 0 0 0 0 0 0 0 1 1 1 1 2 2 1 1 1 0 0 0 0 0 0 0 0 0 0 0 0 0 0 0 0 0 0 0 0 0 0 0
1 1 0 0 0 0 0 0 0 0 0 0 0 0 0 0 0 0 1 1 1 1 1 1 1 0 0 0 0 0 0 0 0 0 0 0 0 0 0 0 0 0 0 0 0 0 0 0 0
1 1 1 0 0 0 0 0 0 0 0 0 0 0 0 0 0 0 0 0 1 1 1 1 1 0 0 0 0 0 0 0 0 0 0 0 0 0 0 0 0 0 0 0 0 0 0 0 0
1 1 1 0 0 0 0 0 0 0 0 0 0 0 0 0 0 0 0 0 0 1 1 1 1 0 0 0 0 0 0 0 0 0 0 0 0 0 0 0 0 0 0 0 0 0 0 0 0
0 0 1 0 0 0 0 0 0 0 0 0 0 0 0 0 0 0 0 0 0 0 1 1 1 0 0 0 0 0 0 0 0 0 0 0 0 0 0 0 0 0 0 0 0 0 0 0 0
0 0 0 0 0 0 0 0 0 0 0 0 0 0 0 0 0 0 0 0 0 0 1 1 1 0 0 0 0 0 0 0 0 0 0 0 0 0 0 0 0 0 0 0 0 0 0 0 0
0 0 0 0 0 0 0 0 0 0 0 0 0 0 0 0 0 0 0 0 0 0 1 1 1 1 0 0 0 0 0 0 0 0 0 0 0 0 0 0 0 0 0 0 0 0 0 0 0
0 0 0 0 0 0 0 0 0 0 0 0 0 0 0 0 0 0 0 0 0 0 1 1 1 1 0 0 0 0 0 0 0 0 0 0 0 0 0 0 0 0 0 0 0 0 0 0 0
Wind_Speed
2 3 3 4 7 6 3 1 0 2 3 2 4 6 6 4 2 2 1 0 0 0 1 1 3 4 5 6 6 7 8 8 8 8 9 8 8 8 8 9 9 10 10 10 11 10 10 10 9
1 2 4 5 6 4 1 1 2 2 3 3 4 5 5 4 2 2 0 1 1 1 1 1 3 5 5 6 7 7 7 8 8 9 8 8 8 7 7 8 9 9 10 10 10 10 10 10 10
2 3 5 5 4 3 2 1 2 3 3 2 4 4 4 2 1 1 1 2 2 2 2 2 4 5 6 6 7 7 7 8 8 8 8 8 8 7 7 8 9 9 9 10 10 10 10 10 10
3 5 6 6 4 0 2 2 2 4 3 4 4 4 3 2 1 2 2 3 2 1 2 2 4 5 6 6 7 7 7 8 8 9 9 9 9 10 10 10 10 9 10 10 10 10 10 10 11
4 5 6 4 2 1 0 1 2 3 3 3 4 4 2 3 2 4 3 3 2 1 2 2 4 5 6 6 7 7 8 8 8 9 9 9 10 12 12 11 10 10 10 10 10 10 10 11 11
5 5 5 2 1 1 1 1 3 4 3 3 3 3 1 1 3 3 3 2 2 1 2 3 4 5 6 6 6 7 8 8 9 9 9 10 11 11 11 10 10 10 10 10 10 10 11 11 11
5 5 3 2 1 1 1 2 3 3 3 3 4 4 1 1 1 3 3 2 2 2 2 3 3 4 5 6 6 7 8 8 9 9 10 10 11 11 10 10 10 10 10 10 10 10 11 11 11
5 5 3 2 2 0 1 2 2 3 2 3 3 5 3 3 2 3 4 3 3 3 3 3 3 4 4 4 6 7 8 8 9 9 10 10 10 10 10 9 9 9 9 10 10 11 11 11 11
4 6 2 2 3 1 1 3 2 2 4 3 2 2 2 5 6 5 4 3 2 2 2 2 3 3 3 3 5 6 7 8 8 7 9 8 5 5 5 8 10 10 10 10 10 11 12 11 11
5 4 3 3 4 3 2 3 3 4 3 2 3 4 5 6 6 5 3 2 1 1 1 1 2 2 3 3 3 3 4 4 4 4 5 4 4 4 6 9 10 11 10 10 11 11 10 8 5
3 4 2 1 3 3 3 3 3 6 1 3 4 5 6 5 5 4 3 2 1 0 1 1 1 2 2 2 2 2 2 3 3 4 4 4 4 4 4 4 5 6 7 6 7 6 5 4 4
3 1 1 1 2 3 3 3 3 3 3 3 6 8 7 6 5 4 3 2 1 1 1 1 2 2 2 2 2 2 2 2 2 3 4 3 3 3 3 3 3 3 3 4 4 3 4 5 5
2 1 2 3 3 4 5 4 3 1 1 5 7 7 7 6 4 2 2 2 2 1 0 1 2 2 2 2 1 2 2 2 2 2 3 3 3 3 3 3 3 3 3 3 3 4 4 4 4
2 2 2 2 3 2 4 2 3 0 4 7 7 6 5 5 3 2 2 2 1 1 1 1 2 2 2 2 2 1 2 2 2 3 3 3 3 3 3 3 3 3 3 3 3 4 4 4 4
3 4 3 1 1 1 4 3 1 2 6 6 5 5 4 3 2 2 3 2 2 1 1 1 2 3 3 2 2 2 2 2 2 2 3 3 3 3 3 3 3 3 3 4 4 4 4 4 4
3 3 1 2 1 1 5 2 3 4 6 6 4 4 3 2 2 2 2 2 1 2 2 1 2 3 2 2 2 2 2 2 2 2 2 3 3 3 3 3 2 2 3 3 3 3 4 4 3
3 1 1 3 1 2 3 3 2 4 6 6 5 4 4 2 1 2 2 2 2 2 2 2 3 3 2 2 2 3 2 3 2 2 2 2 3 3 3 2 2 2 3 3 3 3 3 3 3
3 2 2 2 1 2 3 3 2 4 5 5 4 4 3 4 4 2 2 2 2 2 2 3 3 3 3 3 3 3 3 3 2 2 2 2 2 3 3 2 2 2 3 3 3 3 3 2 2
3 3 2 3 1 2 3 3 3 4 4 4 4 4 4 5 3 1 2 2 3 2 3 3 3 3 3 2 2 2 1 1 2 2 2 2 2 2 2 2 2 2 2 2 2 2 3 2 2
2 2 2 2 0 2 2 2 3 3 5 6 6 6 6 3 1 1 1 2 3 3 3 2 2 3 2 2 2 2 1 1 1 1 2 3 2 2 2 2 2 2 2 2 2 2 2 1 1
1 4 3 2 1 2 1 3 2 2 2 2 4 5 5 6 5 3 2 2 2 3 3 3 3 3 3 2 2 3 3 2 2 2 2 2 2 2 2 2 2 1 2 1 1 2 2 1 0
3 4 4 3 2 2 1 3 5 3 2 3 4 4 5 5 5 4 4 3 3 3 3 2 2 2 2 3 3 4 2 1 1 0 0 1 2 2 2 2 2 1 1 1 1 1 1 2 1
3 1 2 2 2 0 1 2 6 1 3 5 5 6 6 6 6 5 5 5 4 3 3 2 2 2 2 3 4 4 2 1 1 1 1 1 1 1 1 1 1 1 1 1 1 1 1 1 1
3 5 5 4 3 1 3 3 6 4 6 5 5 6 6 6 5 5 4 3 2 2 2 3 3 2 2 3 3 3 4 3 2 1 1 0 1 1 1 1 0 1 1 1 1 1 1 1 1
4 5 3 3 2 4 2 3 7 5 6 7 7 7 7 6 6 5 4 4 4 4 3 3 3 2 2 3 3 3 4 4 4 3 2 1 0 0 1 0 0 0 1 1 1 1 1 1 1
3 6 6 4 4 4 1 4 7 4 3 3 4 5 5 6 5 5 6 5 5 5 4 4 4 3 3 3 3 3 3 3 2 3 2 2 2 2 2 1 1 1 1 1 1 1 1 1 1
4 2 5 5 1 1 4 5 6 1 1 1 3 3 5 6 6 6 5 4 4 5 5 5 5 4 3 3 3 3 3 3 3 3 2 2 2 2 1 1 1 1 1 1 1 0 1 1 0
4 6 4 4 3 3 4 4 4 3 2 2 2 4 5 4 5 5 4 4 4 4 4 4 4 4 3 3 3 3 3 3 3 2 2 2 2 1 1 1 1 1 1 1 1 1 0 1 0
2 3 4 4 4 4 3 6 5 5 5 4 5 5 5 5 5 5 4 4 4 3 3 3 3 2 2 2 2 2 2 2 2 2 2 2 2 2 2 2 2 2 2 1 2 1 1 1 0
3 5 6 4 3 3 3 8 4 3 4 4 4 4 4 4 4 3 3 3 3 3 2 2 2 2 2 2 2 2 2 2 2 2 2 2 2 2 2 2 2 2 2 2 2 2 2 2 1
Wind_Direction
354 74 79 57 54 53 58 358 5 57 54 42 60 78 88 79 84 120 280 219 168 309 332 13 49 58 61 61 65 64 63 62 64 67 67 68 71 73 75 75 79 81 83 86 87 85 85 87 87
73 86 58 60 78 74 10 345 63 85 128 129 71 70 69 62 62 101 351 260 117 83 20 35 63 59 61 64 68 65 65 63 63 64 65 61 67 73 80 83 83 83 84 85 85 83 84 84 82
90 56 75 68 84 130 159 195 131 93 105 94 73 61 80 90 107 164 218 165 98 57 24 21 68 60 62 68 70 68 65 64 66 65 64 59 57 67 87 91 87 85 84 85 85 83 82 82 81
78 48 54 67 75 135 169 171 150 117 67 48 86 67 55 27 148 166 134 122 102 55 23 16 66 66 66 70 70 70 66 67 68 66 62 60 58 66 83 88 86 84 84 86 87 84 82 80 79
60 70 62 56 40 12 71 129 117 97 79 56 81 88 42 357 71 107 118 117 110 61 23 22 68 70 70 70 69 70 67 67 70 69 64 61 63 68 76 81 82 80 81 83 85 82 82 80 78
56 63 78 79 28 15 42 102 99 88 92 92 99 102 50 21 99 121 123 106 93 76 37 27 47 66 67 69 68 71 67 65 67 67 66 62 64 68 71 77 80 77 76 77 79 78 80 78 77
95 86 104 121 92 34 121 128 120 115 110 144 133 107 75 13 126 124 113 91 68 63 52 32 27 39 52 57 60 66 66 63 63 64 65 63 61 64 68 72 75 74 75 79 80 78 79 80 79
113 98 85 105 123 15 123 116 113 116 123 115 112 129 179 207 134 101 85 69 58 49 45 32 26 27 28 34 48 59 61 59 59 61 63 61 56 55 61 65 70 71 72 76 77 76 77 78 77
82 78 121 182 160 198 114 106 73 71 94 83 91 138 175 135 116 95 72 48 42 45 27 29 29 26 25 29 41 46 51 49 52 54 59 56 40 34 48 63 69 71 71 72 72 71 69 69 68
81 112 197 196 172 160 123 117 132 87 73 59 58 59 93 113 118 118 117 113 83 31 14 38 33 29 31 39 38 28 36 35 42 44 45 45 41 38 46 49 61 64 66 68 69 68 63 57 51
108 153 184 144 154 139 123 103 106 119 127 193 162 140 124 121 123 139 149 143 160 151 37 47 44 38 47 42 43 32 33 37 42 45 47 49 44 40 40 40 40 43 51 53 57 56 52 54 54
101 129 162 137 114 115 124 121 103 124 202 172 150 143 135 136 148 159 157 138 99 87 55 53 73 62 53 54 51 44 39 41 43 39 49 57 52 46 44 47 39 41 46 55 55 59 59 59 58
96 93 84 108 97 107 103 106 122 101 72 102 117 123 138 150 158 146 138 135 122 125 107 68 89 85 70 65 52 56 45 47 47 45 47 62 69 59 53 50 49 46 48 54 55 59 61 63 58
132 103 65 62 89 98 108 93 106 146 109 112 123 136 148 152 152 129 132 131 148 160 133 81 97 93 88 80 71 58 51 49 51 51 52 64 71 69 67 59 53 47 47 53 63 62 64 66 64
96 82 32 4 97 147 105 37 302 157 127 125 137 148 146 150 143 163 173 166 176 163 125 112 117 93 93 86 76 66 58 59 57 54 58 63 73 76 76 67 56 50 53 59 62 58 56 61 60
68 70 13 297 139 137 119 220 263 146 142 149 160 161 160 180 182 196 182 168 163 132 113 98 110 103 98 92 81 69 60 64 59 58 61 62 72 84 83 79 61 54 60 62 66 61 60 55 53
44 118 235 293 206 130 141 213 227 157 161 170 179 181 183 195 213 210 183 172 162 153 136 110 99 107 109 99 84 74 64 58 52 55 56 56 69 80 82 79 67 67 68 61 73 61 67 66 57
209 194 229 255 261 127 165 223 226 174 175 182 187 191 196 204 219 205 180 169 150 143 131 119 104 101 103 91 75 65 57 44 40 47 50 58 69 79 83 80 73 79 77 62 64 70 59 62 57
164 167 219 254 207 142 199 234 241 183 177 187 194 196 207 219 224 177 168 158 139 133 131 127 117 113 108 92 91 85 63 32 25 26 45 59 69 76 82 76 72 83 96 104 97 85 71 55 50
137 152 237 289 1 150 196 259 258 179 194 197 196 201 207 208 196 185 164 149 156 160 156 143 138 136 135 126 123 117 116 85 52 18 38 46 61 73 90 85 81 87 96 95 101 102 93 68 67
197 188 206 212 27 64 92 317 276 250 197 197 197 200 201 195 197 198 184 179 165 168 170 166 163 153 144 124 99 79 62 48 36 23 18 15 51 73 83 94 96 91 106 135 142 134 130 138 72
247 224 192 172 125 264 171 266 278 247 242 224 217 208 207 203 192 187 186 186 189 195 172 152 150 147 144 139 135 131 128 131 207 237 348 13 45 63 77 96 98 106 104 116 167 141 140 135 143
219 128 135 154 149 350 331 208 281 277 244 241 226 216 211 203 191 191 195 194 191 177 160 148 135 135 143 152 155 146 137 148 122 77 63 32 20 35 54 93 103 111 129 150 113 103 126 136 151
133 75 58 52 73 285 238 189 272 235 221 230 222 216 209 200 195 198 196 181 172 161 152 148 148 157 155 155 156 159 158 152 131 115 101 13 359 0 15 57 119 148 134 150 148 131 132 152 149
82 88 36 359 5 257 242 198 251 248 223 214 213 211 206 195 189 192 187 184 183 180 176 169 165 182 184 172 175 184 182 174 174 178 183 181 215 273 271 212 212 201 190 165 138 131 138 159 156
166 142 159 201 226 276 292 234 254 259 249 219 208 197 186 187 191 196 199 192 192 192 184 180 182 193 195 193 199 194 187 184 194 192 188 194 205 222 229 212 216 230 193 175 146 134 182 142 174
140 163 165 136 164 269 280 290 300 290 15 154 175 173 188 191 193 198 199 194 194 194 192 190 188 192 197 202 200 196 191 192 205 204 192 200 210 213 200 204 220 228 201 179 150 150 215 156 177
136 142 108 122 154 256 288 277 256 263 263 240 201 203 210 198 196 197 193 194 197 198 195 187 188 196 199 196 205 201 200 201 200 192 195 199 207 207 178 193 214 218 208 172 150 173 208 154 208
103 105 107 116 150 164 258 272 235 223 226 220 221 211 204 194 194 198 197 194 187 176 172 174 179 179 188 200 203 198 201 195 185 189 204 204 193 189 199 205 202 206 209 191 171 193 177 178 243
181 166 145 152 207 176 192 264 281 240 235 216 221 217 202 195 192 191 186 171 165 167 166 169 173 176 192 192 179 188 184 175 180 196 208 201 198 195 206 202 195 208 210 197 187 195 184 194 226